Lid_Strength_Index
18 17 17 17 17 16 16 17 16 16 16 16 15 15 15 15 14 14 14 10 10 9 7 7 6 4 3 2 -1 -1 -1 -1 -2 -1 -1 -1 -2 -2 -2 -2 -2 -2 -2
18 17 17 17 17 17 16 16 16 16 17 16 16 16 16 16 15 15 14 14 9 9 9 7 6 6 5 3 2 -0 -1 -1 -1 -2 -2 -1 -1 -2 -2 -2 -2 -2 -2
18 18 18 18 17 17 16 16 16 16 16 16 16 16 16 16 16 16 15 13 12 10 8 7 7 6 6 5 4 3 1 0 -1 -2 -2 -1 -1 -1 -2 -2 -2 -2 -2
17 18 18 18 17 17 17 17 17 17 17 17 17 16 16 16 16 16 14 15 14 12 11 7 5 6 7 6 5 4 3 2 1 -1 -1 -2 -1 -1 -2 -2 -2 -2 -2
17 18 18 18 17 18 18 17 18 18 18 18 17 16 16 16 15 15 15 14 13 13 13 10 7 6 4 4 3 2 2 2 2 1 -1 -1 -1 -1 -1 -2 -2 -2 -2
17 18 18 18 18 18 18 18 18 18 18 18 16 17 17 16 16 16 15 14 14 14 14 13 11 10 8 6 5 5 3 3 3 1 -0 -1 -1 -1 -1 -2 -2 -2 -2
17 18 18 18 18 18 19 18 18 18 18 17 18 18 17 16 16 16 15 15 15 15 14 13 12 12 12 8 8 6 5 5 3 3 1 0 -1 -1 -1 -1 -2 -2 -2
17 17 18 18 18 18 19 19 19 19 18 18 19 18 20 18 16 16 16 15 16 15 14 14 14 14 13 13 12 8 5 5 4 3 2 2 0 -1 -2 -2 -1 -2 -2
18 18 18 18 19 19 19 19 19 19 19 18 18 19 20 21 19 17 17 16 16 16 15 14 14 14 13 13 12 11 8 6 3 3 3 2 2 -0 -1 -2 -2 -2 -1
18 18 18 18 19 18 19 19 17 18 18 19 18 17 18 19 20 21 18 17 16 16 16 15 15 14 14 13 12 11 9 6 4 3 3 3 2 1 -0 -1 -2 -2 -1
19 18 18 19 19 18 19 19 19 19 18 19 18 18 19 18 18 19 21 19 17 16 15 15 15 15 13 14 13 11 9 6 6 4 3 3 3 2 2 -1 -2 -1 -1
19 19 18 19 19 19 19 18 18 19 19 19 18 18 18 19 19 19 20 19 19 17 16 15 15 15 14 13 12 10 9 8 7 6 5 3 4 4 4 3 2 -1 -1
20 20 19 19 19 19 18 18 18 19 18 19 19 18 18 17 17 17 18 19 19 17 17 15 15 14 14 13 13 10 10 9 9 7 6 4 4 6 6 5 4 3 -1
20 19 19 19 19 18 18 18 19 18 19 18 19 18 17 17 16 16 17 18 19 19 18 18 16 15 14 13 12 11 13 10 9 9 8 7 7 6 7 7 5 5 4
18 19 19 20 19 19 19 19 19 19 19 18 17 17 17 17 16 16 16 16 18 21 20 18 17 15 14 14 13 13 13 11 10 9 9 9 8 7 6 8 7 6 6
19 19 19 19 19 19 19 19 18 18 18 18 17 17 17 16 16 16 15 15 16 18 20 16 15 14 13 12 12 13 13 11 11 10 9 9 9 8 7 7 7 7 6
19 19 18 18 18 19 18 18 18 17 17 17 16 16 16 15 15 15 14 14 14 14 16 14 12 11 11 10 10 11 11 13 13 10 10 9 9 8 7 6 8 7 7
18 18 18 18 18 18 18 18 17 16 17 16 16 16 15 14 14 12 12 12 11 11 12 14 12 12 11 10 10 10 9 9 10 10 9 9 8 8 7 6 7 8 7
17 17 17 17 17 17 17 16 16 15 15 15 15 15 14 12 11 11 11 11 10 10 10 11 12 10 10 10 10 10 10 9 8 8 8 8 8 7 7 6 6 6 7
18 17 17 16 16 16 15 15 15 15 15 14 13 12 11 11 11 10 10 10 9 10 10 10 10 10 10 9 10 11 11 10 10 8 8 9 8 7 7 7 6 6 7
17 17 16 16 15 15 14 14 14 14 14 12 10 10 9 8 7 7 8 8 9 9 9 9 10 10 10 10 10 10 11 11 10 9 9 9 9 8 7 8 8 7 7
17 18 17 16 16 14 12 11 10 11 9 8 8 8 7 6 6 5 4 4 4 7 9 9 9 10 10 9 9 10 11 12 13 8 8 9 9 11 9 9 8 8 7
19 18 19 18 17 15 11 9 7 7 8 9 8 8 8 6 6 7 5 4 4 3 3 6 8 8 9 8 8 9 10 11 11 10 10 11 9 11 10 9 8 8 8
20 19 18 17 16 13 8 7 6 7 8 8 8 8 7 7 7 7 7 7 6 5 5 5 5 6 7 6 6 7 8 9 10 9 9 12 9 9 9 10 8 8 8
17 18 16 15 14 13 8 7 7 8 9 9 8 7 7 8 6 5 7 8 6 6 3 2 2 2 3 3 4 7 8 9 11 10 9 10 9 9 9 10 10 8 7
14 13 12 12 11 12 9 7 7 8 9 8 8 8 6 7 6 5 7 7 7 6 6 5 5 4 3 3 2 3 5 8 10 11 8 10 10 9 9 8 7 7 7